Louisville Bowman, KY

11:28 PM EST on November 16, 2019 (GMT -0500)
Bowman

Weather History for KLOU - October, 2019

Change the Weather History Date:

Sunday, October 20, 2019

  Actual Average Record
Temperature  
Mean Temperature 67 °F 57 °F  
Max Temperature 75 °F 68 °F 86 °F (1953)
Min Temperature 58 °F 47 °F 30 °F (1972)
Degree Days  
Heating Degree Days 0 9  
Month to date heating degree days 113 128  
Since 1 July heating degree days 113 164  
Cooling Degree Days 2 1  
Month to date cooling degree days 68 27  
Year to date cooling degree days 1792 1440  
Growing Degree Days 17 (Base 50)    
Moisture  
Dew Point 55 °F    
Average Humidity 67    
Maximum Humidity 90    
Minimum Humidity 43    
Precipitation  
Precipitation 0.00 in 0.11 in 1.44 in (1985)
Month to date precipitation 2.45 2.11  
Year to date precipitation 45.45 36.81  
Sea Level Pressure  
Sea Level Pressure 29.86 in    
Wind  
Wind Speed 5 mph (SSW)    
Max Wind Speed 10 mph    
Max Gust Speed 14 mph    
Visibility 10 miles    
Events      
T = Trace of Precipitation, MM = Missing Value Source: NWS Daily Summary

Daily Weather History Graph

Daily Weather History Graph

Search for Another Location

Airport or City:

Astronomy

Oct. 20, 2019 Rise Set
Actual Time 7:56 AM EDT 6:58 PM EDT
Civil Twilight 7:29 AM EDT 7:24 PM EDT
Nautical Twilight 6:58 AM EDT 7:55 PM EDT
Astronomical Twilight 6:28 AM EDT 8:26 PM EDT
Moon No Moon Rise 2:19 PM EDT (10/20)
Length of Visible Light 11h 55m
Length of Day
11h 02m
Waning Gibbous, 59% of the Moon is Illuminated
Oct 20
Waning Gibbous
Oct 21
Last Quarter
Oct 27
New
Nov 4
First Quarter
Nov 12
Full

Hourly Weather History & Observations

Time (EDT) Temp. Dew Point Humidity Pressure Visibility Wind Dir Wind Speed Gust Speed Precip Events Conditions
12:53 AM 63.0 °F 57.0 °F 81% 29.82 in 9.0 mi SSW 9.2 mph - 0.00 in   Overcast
1:04 AM 62.1 °F 57.0 °F 84% 29.83 in 9.0 mi SSW 9.2 mph - N/A   Overcast
1:53 AM 62.1 °F 57.0 °F 84% 29.81 in 10.0 mi South 6.9 mph - N/A   Overcast
2:01 AM 62.1 °F 57.0 °F 84% 29.82 in 10.0 mi SSW 5.8 mph - N/A   Overcast
2:27 AM 62.1 °F 57.0 °F 84% 29.81 in 10.0 mi South 3.5 mph - N/A   Overcast
2:53 AM 62.1 °F 57.0 °F 84% 29.80 in 10.0 mi SSE 5.8 mph - N/A   Overcast
3:04 AM 61.0 °F 57.0 °F 87% 29.81 in 10.0 mi South 5.8 mph - N/A   Overcast
3:53 AM 61.0 °F 57.0 °F 87% 29.80 in 10.0 mi South 4.6 mph - N/A   Overcast
4:24 AM 61.0 °F 57.0 °F 87% 29.81 in 10.0 mi South 4.6 mph - N/A   Overcast
4:40 AM 61.0 °F 57.0 °F 87% 29.81 in 10.0 mi South 4.6 mph - N/A   Overcast
4:49 AM 60.8 °F 57.2 °F 88% 29.82 in 10.0 mi SW 4.6 mph - N/A   Overcast
4:53 AM 61.0 °F 57.0 °F 87% 29.81 in 10.0 mi WSW 4.6 mph - N/A   Overcast
5:05 AM 61.0 °F 57.0 °F 87% 29.82 in 10.0 mi SSW 4.6 mph - N/A   Overcast
5:18 AM 61.0 °F 57.0 °F 87% 29.82 in 10.0 mi SSW 4.6 mph - N/A   Overcast
5:53 AM 61.0 °F 55.9 °F 83% 29.83 in 10.0 mi SSW 4.6 mph - N/A   Overcast
6:53 AM 59.0 °F 55.0 °F 87% 29.84 in 10.0 mi South 3.5 mph - N/A   Mostly Cloudy
7:17 AM 59.0 °F 55.9 °F 90% 29.85 in 10.0 mi SSW 3.5 mph - N/A   Mostly Cloudy
7:53 AM 60.1 °F 55.9 °F 86% 29.86 in 10.0 mi SW 3.5 mph - N/A   Mostly Cloudy
8:39 AM 60.1 °F 55.0 °F 83% 29.87 in 10.0 mi Calm Calm - N/A   Scattered Clouds
8:53 AM 60.1 °F 55.0 °F 83% 29.87 in 10.0 mi Calm Calm - N/A   Clear
9:53 AM 63.0 °F 55.9 °F 78% 29.91 in 10.0 mi SSW 5.8 mph - N/A   Mostly Cloudy
10:24 AM 64.0 °F 55.0 °F 73% 29.91 in 10.0 mi Calm Calm - N/A   Scattered Clouds
10:53 AM 66.0 °F 55.9 °F 70% 29.90 in 10.0 mi South 3.5 mph - N/A   Partly Cloudy
11:53 AM 68.0 °F 55.0 °F 63% 29.90 in 10.0 mi SSW 5.8 mph - N/A   Clear
12:53 PM 70.0 °F 53.1 °F 55% 29.90 in 10.0 mi Variable 3.5 mph - N/A   Clear
1:53 PM 72.0 °F 51.1 °F 48% 29.89 in 10.0 mi South 5.8 mph - N/A   Clear
2:53 PM 75.0 °F 51.1 °F 43% 29.88 in 10.0 mi Calm Calm - N/A   Clear
3:53 PM 75.0 °F 52.0 °F 44% 29.87 in 10.0 mi Calm Calm - N/A   Clear
4:53 PM 75.0 °F 54.0 °F 48% 29.87 in 10.0 mi WSW 5.8 mph - N/A   Clear
5:53 PM 73.0 °F 53.1 °F 49% 29.87 in 10.0 mi South 9.2 mph - N/A   Clear
6:53 PM 69.1 °F 53.1 °F 57% 29.88 in 10.0 mi South 5.8 mph - N/A   Clear
7:53 PM 68.0 °F 54.0 °F 61% 29.90 in 10.0 mi SSE 5.8 mph - N/A   Clear
8:53 PM 64.9 °F 54.0 °F 68% 29.92 in 10.0 mi South 4.6 mph - N/A   Clear
9:53 PM 64.0 °F 54.0 °F 70% 29.92 in 10.0 mi SSE 6.9 mph - N/A   Clear
10:53 PM 63.0 °F 54.0 °F 72% 29.94 in 10.0 mi SE 4.6 mph - N/A   Clear
11:53 PM 60.1 °F 53.1 °F 78% 29.93 in 10.0 mi SSE 4.6 mph - N/A   Clear